Regional Weather Roundup
Issued by NWS Upton, NY

Current Version | Previous Version | Text Only | Print | Product List | Glossary Off
Versions: 1 2 3 4 5 6 7 8 9 10 11 12 13 14 15 16 17 18 19 20 21 22 23 24 25 26 27 28 29 30 31 32 33 34 35 36 37 38 39 40 41 42 43 44 45 46 47 48 49 50
000 ASUS41 KOKX 271008 RWROKX REGIONAL WEATHER ROUNDUP NATIONAL WEATHER SERVICE NEW YORK NY 600 AM EDT WED MAY 27 2015 NOTE: "FAIR" INDICATES FEW OR NO CLOUDS BELOW 12,000 FEET WITH NO SIGNIFICANT WEATHER AND/OR OBSTRUCTIONS TO VISIBILITY. NYZ071-072-176-178-NJZ106-104-271100- NEW YORK CITY METRO AREA CITY SKY/WX TMP DP RH WIND PRES REMARKS CENTRAL PARK PTCLDY 71 63 75 SW8 30.19R LAGUARDIA APRT MOCLDY 68 61 78 S8 30.16R KENNEDY INTL MOCLDY 62 58 86 S7 30.18R NEWARK/LIBERTY MOCLDY 70 65 84 S9 30.16R BRNX BOT. GARD N/A 66 61 82 SE8 30.17R TETERBORO PTCLDY 69 63 81 S5 30.15R $$ NYZ177-179-078>081-271100- LONG ISLAND NEW YORK CITY SKY/WX TMP DP RH WIND PRES REMARKS FARMINGDALE PTCLDY 62 59 90 S8 30.19R ISLIP MOCLDY 63 59 87 SW12 30.18S SHIRLEY PTCLDY 63 59 87 S8 30.20S WESTHAMPTON CLEAR 61 59 93 S5 30.21S MONTAUK POINT N/A 61 57 87 S9G21 30.21S $$ NYZ052-065-067-271100- HUDSON VALLEY CITY SKY/WX TMP DP RH WIND PRES REMARKS WHITE PLAINS PTCLDY 63 61 93 CALM 30.17R NEWBURGH PTCLDY 68 64 88 VRB3 30.15S MONTGOMERY MOCLDY 64 63 96 CALM 30.14R POUGHKEEPSIE PTCLDY 66 63 90 CALM 30.13R ALBANY MOCLDY 71 63 75 S9 30.09R $$ NJZ001-105-106-008-010-013-015-019>022-104-271100- NEW JERSEY CITY SKY/WX TMP DP RH WIND PRES REMARKS NEWARK/LIBERTY MOCLDY 70 65 84 S9 30.16R TETERBORO PTCLDY 69 63 81 S5 30.15R CALDWELL PTCLDY 69 62 78 CALM 30.16R MORRISTOWN CLOUDY 68 63 83 CALM 30.16S SOMERVILLE CLOUDY 67 63 87 CALM 30.14R SUSSEX MOCLDY 66 62 87 CALM 30.16R ANDOVER N/A 68 64 87 S3 30.15R TRENTON MOCLDY 69 65 86 S6 30.16R MILLVILLE CLEAR 69 66 90 VRB3 30.18R ATLANTIC CITY CLEAR 65 62 90 S6 30.19R WRIGHTSTOWN PTCLDY 65 65 100 S3 30.15R TOMS RIVER CLEAR N/A N/A N/A S6 30.18R BELMAR CLEAR 66 59 77 SW7 30.18R $$ PAZ047>061-062-071-271100- EASTERN PENNSYLVANIA CITY SKY/WX TMP DP RH WIND PRES REMARKS PHILADELPHIA CLOUDY 72 66 81 S9 30.16S ALLENTOWN CLOUDY 71 64 78 CALM 30.14R SCRANTON PTCLDY 71 64 78 CALM 30.13R $$ CTZ002-004>006-009-010-012-RIZ004-006-007-MAZ004-011-015-271100- SOUTHERN NEW ENGLAND IN CT CITY SKY/WX TMP DP RH WIND PRES REMARKS BRADLEY INTL PTCLDY 65 60 84 S7 30.15R HARTFORD PTCLDY 66 60 81 S9 30.16R DANBURY PTCLDY 64 58 80 SE8 30.18R WTRBRY/OXFORD MOCLDY 64 57 77 S6 30.21R BRIDGEPORT PTCLDY 63 60 90 SW8 30.17R MERIDEN MOCLDY 65 60 84 S7 30.18R NEW HAVEN MOCLDY 61 59 93 SE3 30.18R CHESTER FAIR 63 61 94 SW8 30.20R GROTON MOCLDY 59 56 89 S8 30.20R WILLIMANTIC MOCLDY 66 60 81 VRB5 30.19R IN RI CITY SKY/WX TMP DP RH WIND PRES REMARKS PROVIDENCE CLOUDY 63 59 87 S7 30.20R BLOCK ISLAND MOCLDY 57 54 88 SW13 30.22S WESTERLY CLOUDY 60 57 89 SW7 30.22R IN MA CITY SKY/WX TMP DP RH WIND PRES REMARKS BOSTON CLOUDY 65 60 84 SW13 30.16R WORCESTER PTCLDY 63 59 87 SW12 30.18R WESTFIELD PTCLDY 63 59 87 S3 30.15R PROVINCETOWN PTCLDY 59 55 88 SW14 30.20R NANTUCKET PTCLDY 59 57 93 SW14 30.25R $$ ANZ330-335-338-340-345-350-353-355-271100- COASTAL MARINE OBSERVATIONS STATION/POSITION TIME SKY/WX TEMP WIND PRES VSBY WAVE AIR SEA DIR/SP/G HT/PER (UTC) (F) (DEG/KT/KT) (MB) (MI) (FT/S) NY HARB ENTRANCE 0950 60 56 200/ 12/ 16 1021.5 3/ 6 4S FIRE IS 0933 56 N/A 4/ 6 20S FIRE ISLAND 0950 59 56 200/ 10/ 12 1022.4 4/ 6 GREAT SOUTH BAY 0900 62 66 230/ 10/ 14 N/A 23SW MTP 0950 59 53 210/ 14/ 16 1022.8 4/ 5 HUDSON CANYON NOT AVBL KINGS POINT 0900 64 56 180/ 6/ 9 1020.7 CENTRAL LI SOUND 0915 60 55 200/ 8/ 8 N/A EASTERN LI SOUND 0900 57 190/ 6/ 8 N/A ROBBINS REEF 0900 68 190/ 5/ 7 1020.0 $$ >>>>>>>>>>>>>>>>>>>>>>>>>>>> KEY <<<<<<<<<<<<<<<<<<<<<<<<<<< > < > SKY/WX - SKY CONDITION/PRESENT WEATHER < > TMP - TEMPERATURE IN FAHRENHEIT < > DP - DEWPOINT IN FAHRENHEIT < > RH - RELATIVE HUMIDITY IN PERCENT < > WIND - DIRECTION AND SPEED IN MPH < > PRES - MEAN SEA LEVEL PRESSURE IN INCHES OF HG < > WCI - WIND CHILL INDEX < > VSB - VISIBILITY IN MILES < > HX - HEAT INDEX < > TC - TEMPERATURE IN CELSIUS < > VRB - VARIABLE WIND DIRECTION < > < >>>>>>>>>>>>>>>>>>>>>>>>>>>> KEY <<<<<<<<<<<<<<<<<<<<<<<<<<<

USA.gov is the U.S. government's official web portal to all federal, state and local government web resources and services.